[[{"header":{"parameterUnit":"m.s-1","parameterCategory":1,"la1":30.2991,"la2":30.254,"lo1":-89.0895,"lo2":-89.0444,"dy":0.0017,"dx":0.0017,"nx":28,"ny":28,"refTime":"2024-12-01T09:00:00:Z","depth":0,"parameterNumber":2,"parameterNumberName":"U-component_of_WINDS"},"data":[0,0,0,0,0,0,0,0,0,0,0,0,0,0,0,0,0,0,0,0,0,0,0,0,0,0,0,0,0,0,0,0,0,0,0,0,0,0,0,0,0,0,0,0,0,0,0,0,0,0,0,0,0,0,0,0,0,0,-0.3858,-0.3858,0,-0.3874,-0.3874,-0.3874,-0.3788,-0.3785,-0.3783,-0.3781,-0.3799,-0.3802,-0.3805,0,0,0,0,0,0,0,0,0,0,0,0,0,-0.3756,-0.3759,-0.3858,-0.3858,-0.3859,-0.3874,-0.3874,-0.3874,-0.3788,-0.3785,-0.3782,-0.3779,-0.3798,-0.3802,-0.3805,0,0,0,0,0,0,0,0,0,0,0,0,0,-0.3789,-0.376,-0.3858,-0.3818,-0.3814,-0.3874,-0.3874,-0.3874,-0.3789,-0.3785,-0.3781,-0.3778,-0.3797,-0.3801,-0.3805,-0.3906,0,0,-0.3818,-0.382,0,0,0,0,0,0,0,0,-0.3788,-0.3793,-0.3823,-0.382,-0.3817,-0.3825,-0.3845,-0.3885,-0.379,-0.3799,-0.378,-0.3776,-0.3811,-0.3814,-0.3825,-0.3907,-0.3908,-0.3819,-0.3821,-0.3823,-0.3824,0,0,0,0,0,0,0,-0.3785,-0.3792,-0.3864,-0.3824,-0.382,-0.3799,-0.38,-0.3852,-0.3826,-0.3798,-0.3791,-0.3794,-0.3808,-0.3821,-0.3825,-0.3908,-0.3819,-0.3822,-0.3825,-0.3827,-0.4074,-0.4077,0,0,0,0,0,0,-0.3788,-0.3791,-0.3864,-0.3865,-0.3793,-0.3804,-0.3805,-0.3826,-0.3825,-0.3821,-0.3797,-0.379,-0.3816,-0.382,-0.3825,-0.3944,-0.3823,-0.3827,-0.3829,-0.407,-0.4074,-0.4079,0,0,0,0,0,0,-0.3786,-0.3796,-0.3863,-0.3826,-0.3833,-0.381,-0.3835,-0.3828,-0.3841,-0.3824,-0.382,-0.3815,-0.3813,-0.3819,-0.3886,-0.3943,-0.3829,-0.3833,-0.4065,-0.4071,-0.4077,-0.4181,0,0,0,0,0,0,-0.3784,-0.3795,-0.3833,-0.3828,-0.3835,-0.3924,-0.3838,-0.3831,-0.3848,-0.3839,-0.384,-0.3837,-0.3811,-0.3881,-0.3891,-0.3947,-0.3836,-0.406,-0.4068,-0.4075,-0.4172,-0.419,-0.4205,0,0,0,0,0,-0.378,-0.3862,-0.3835,-0.3845,-0.3882,-0.3927,-0.3932,-0.39,-0.3853,-0.3891,-0.388,-0.3836,-0.3935,-0.3888,-0.3899,-0.3957,-0.4056,-0.4065,-0.4074,-0.4165,-0.4186,-0.4204,0,0,0,0,0,0,-0.3876,-0.3861,-0.3831,-0.3913,-0.3922,-0.3913,-0.396,-0.3923,-0.3947,-0.3937,-0.3897,-0.3898,-0.3972,-0.3971,-0.3919,-0.4054,-0.3987,-0.3999,-0.4053,-0.4073,-0.4089,-0.4089,-0.384,0,0,0,0,0,-0.3906,-0.3944,-0.3929,-0.4003,-0.4009,-0.3984,-0.4002,-0.3977,-0.3985,-0.3989,-0.3983,-0.3993,-0.4026,-0.4049,-0.4079,-0.4171,-0.4171,-0.4216,-0.4232,-0.4246,-0.4257,-0.4307,-0.4327,-0.4109,-0.4108,-0.4108,0,0,-0.397,-0.3966,-0.3992,-0.4022,-0.4026,-0.4067,-0.3988,-0.4034,-0.4064,-0.3996,-0.4059,-0.4055,-0.4064,-0.4145,-0.418,-0.4146,-0.4317,-0.4257,-0.4268,-0.4272,-0.4318,-0.4339,-0.4357,-0.4115,-0.4114,-0.4113,0,0,-0.4107,-0.4107,-0.4169,-0.4175,-0.4181,-0.4164,-0.4179,-0.4175,-0.417,-0.4232,-0.4182,-0.4218,-0.4275,-0.4284,-0.4296,-0.4436,-0.4397,-0.4447,-0.4532,-0.4581,-0.4598,-0.4614,-0.4665,-0.4684,-0.4457,-0.4458,-0.4458,0,-0.4185,-0.4244,-0.4206,-0.4256,-0.4271,-0.4209,-0.4273,-0.428,-0.4297,-0.4309,-0.427,-0.4341,-0.4343,-0.4425,-0.4459,-0.4471,-0.4487,-0.4447,-0.4599,-0.4614,-0.4627,-0.4676,-0.4695,-0.4464,-0.4463,-0.4463,-0.4462,0,-0.4341,-0.4382,-0.4432,-0.4449,-0.4469,-0.4525,-0.4497,-0.4522,-0.4494,-0.4481,-0.4546,-0.4546,-0.4574,-0.4591,-0.4565,-0.4671,-0.4649,-0.4605,-0.4538,-0.4655,-0.47,-0.4718,-0.4473,-0.447,-0.4469,-0.4467,0,0,-0.454,-0.4534,-0.4553,-0.4561,-0.4563,-0.4595,-0.4649,-0.4676,-0.4699,-0.4712,-0.4757,-0.4807,-0.4767,-0.478,-0.4754,-0.4797,-0.491,-0.4748,-0.4747,-0.4779,-0.5027,-0.5062,-0.5084,-0.4883,-0.4886,-0.4889,-0.5027,0,-0.4675,-0.4766,-0.4734,-0.4827,-0.4866,-0.4808,-0.4855,-0.4862,-0.4851,-0.4883,-0.4871,-0.4908,-0.485,-0.4858,-0.4898,-0.4888,-0.4959,-0.4877,-0.4926,-0.4929,-0.4928,-0.5107,-0.5144,-0.5275,-0.5044,-0.5047,-0.505,0,-0.4846,-0.4865,-0.4963,-0.4959,-0.4974,-0.5017,-0.5039,-0.507,-0.5077,-0.5066,-0.5081,-0.5046,-0.5099,-0.503,-0.5104,-0.5049,-0.5067,-0.5065,-0.5069,-0.5074,-0.4998,-0.5119,-0.5315,-0.5336,-0.5077,-0.5074,-0.5073,0,-0.4983,-0.5034,-0.5099,-0.5106,-0.5103,-0.5135,-0.5135,-0.5138,-0.5157,-0.5177,-0.5189,-0.5215,-0.523,-0.5251,-0.5224,-0.5176,-0.5303,-0.5231,-0.5297,-0.5298,-0.5328,-0.5327,-0.5532,-0.5336,-0.5336,-0.5336,-0.5335,0,-0.5139,-0.5202,-0.5161,-0.5201,-0.5269,-0.5231,-0.53,-0.5294,-0.5297,-0.5336,-0.5287,-0.5324,-0.5285,-0.532,-0.5299,-0.5364,-0.5371,-0.5365,-0.5359,-0.537,-0.5371,-0.5383,-0.5374,-0.5341,-0.534,-0.5339,-0.5338,0,-0.5305,-0.528,-0.5348,-0.5338,-0.5338,-0.5389,-0.5381,-0.5419,-0.5404,-0.5454,-0.5463,-0.5441,-0.5478,-0.5453,-0.5491,-0.5477,-0.5563,-0.5543,-0.5561,-0.5556,-0.5624,-0.5619,-0.5846,-0.5874,-0.5659,-0.5661,-0.5663,0,-0.5407,-0.5454,-0.545,-0.5472,-0.5475,-0.5511,-0.553,-0.5493,-0.5515,-0.5526,-0.5563,-0.5596,-0.5621,-0.5684,-0.5672,-0.5701,-0.5683,-0.576,-0.5687,-0.5698,-0.5687,-0.5685,-0.569,-0.5776,-0.5779,-0.5781,-0.5782,0,-0.5592,-0.5577,-0.5605,-0.5629,-0.5652,-0.567,-0.5683,-0.5705,-0.5668,-0.5695,-0.5732,-0.5752,-0.579,-0.5824,-0.5848,-0.5849,-0.5811,-0.5805,-0.5822,-0.5836,-0.5844,-0.5842,-0.5603,-0.5801,-0.5799,-0.5797,-0.5796,-0.5796,-0.573,-0.5769,-0.5772,-0.5806,-0.5812,-0.5825,-0.586,-0.5849,-0.588,-0.5908,-0.5884,-0.593,-0.5936,-0.5964,-0.597,-0.6006,-0.5975,-0.5999,-0.6006,-0.6013,-0.6023,-0.5837,-0.601,-0.6009,-0.6009,-0.6008,-0.6008,0,-0.5914,-0.5912,-0.5943,-0.5963,-0.599,-0.5949,-0.5962,-0.5987,-0.6027,-0.6036,-0.6061,-0.6105,-0.6138,-0.6127,-0.6157,-0.6188,-0.6171,-0.6197,-0.6196,-0.6197,-0.6049,-0.6032,-0.621,-0.621,-0.621,-0.621,-0.621,-0.621,-0.6012,-0.6076,-0.6062,-0.6129,-0.6127,-0.6171,-0.6182,-0.6195,-0.6201,-0.6252,-0.6279,-0.6271,-0.6273,-0.6302,-0.6331,-0.6327,-0.6341,-0.6374,-0.6365,-0.6227,-0.6207,-0.6188,-0.6172,-0.6377,-0.6377,-0.651,-0.6511,-0.6512]},{"header":{"parameterUnit":"m.s-1","parameterCategory":1,"la1":30.2991,"la2":30.254,"lo1":-89.0895,"lo2":-89.0444,"dy":0.0017,"dx":0.0017,"nx":28,"ny":28,"refTime":"2024-12-01T09:00:00:Z","depth":0,"parameterNumber":3,"parameterNumberName":"V-component_of_WINDS"},"data":[0,0,0,0,0,0,0,0,0,0,0,0,0,0,0,0,0,0,0,0,0,0,0,0,0,0,0,0,0,0,0,0,0,0,0,0,0,0,0,0,0,0,0,0,0,0,0,0,0,0,0,0,0,0,0,0,0,0,-1.2622,-1.2622,0,-1.2627,-1.2627,-1.2627,-1.2611,-1.261,-1.261,-1.261,-1.2614,-1.2615,-1.2616,0,0,0,0,0,0,0,0,0,0,0,0,0,-1.2598,-1.2599,-1.2622,-1.2622,-1.2622,-1.2627,-1.2627,-1.2627,-1.2611,-1.261,-1.261,-1.2609,-1.2614,-1.2615,-1.2616,0,0,0,0,0,0,0,0,0,0,0,0,0,-1.2606,-1.2599,-1.2622,-1.2615,-1.2614,-1.2627,-1.2627,-1.2627,-1.2611,-1.261,-1.261,-1.2609,-1.2614,-1.2615,-1.2616,-1.2636,0,0,-1.2618,-1.2619,0,0,0,0,0,0,0,0,-1.2606,-1.2607,-1.2616,-1.2615,-1.2614,-1.2618,-1.262,-1.263,-1.2611,-1.2612,-1.2609,-1.2609,-1.2616,-1.2617,-1.2619,-1.2636,-1.2636,-1.2618,-1.2619,-1.2619,-1.262,0,0,0,0,0,0,0,-1.2605,-1.2607,-1.2624,-1.2616,-1.2615,-1.2611,-1.2611,-1.2622,-1.2618,-1.2612,-1.2611,-1.2612,-1.2616,-1.2618,-1.2619,-1.2636,-1.2618,-1.2619,-1.262,-1.262,-1.2671,-1.2672,0,0,0,0,0,0,-1.2606,-1.2607,-1.2624,-1.2624,-1.2608,-1.2612,-1.2612,-1.2617,-1.2618,-1.2617,-1.2612,-1.2611,-1.2617,-1.2618,-1.2619,-1.2644,-1.2619,-1.262,-1.2621,-1.267,-1.2671,-1.2672,0,0,0,0,0,0,-1.2605,-1.2607,-1.2623,-1.2615,-1.2617,-1.2613,-1.2619,-1.2618,-1.2621,-1.2618,-1.2617,-1.2616,-1.2617,-1.2618,-1.2632,-1.2644,-1.2621,-1.2621,-1.267,-1.2671,-1.2672,-1.2694,0,0,0,0,0,0,-1.2605,-1.2607,-1.2615,-1.2615,-1.2617,-1.2636,-1.262,-1.2618,-1.2622,-1.2621,-1.2622,-1.2621,-1.2616,-1.2631,-1.2633,-1.2645,-1.2622,-1.2668,-1.267,-1.2672,-1.2692,-1.2695,-1.2699,0,0,0,0,0,-1.2604,-1.262,-1.2615,-1.2618,-1.2627,-1.2637,-1.2638,-1.2633,-1.2623,-1.2631,-1.263,-1.2621,-1.2642,-1.2633,-1.2635,-1.2647,-1.2668,-1.267,-1.2671,-1.269,-1.2695,-1.2698,0,0,0,0,0,0,-1.2621,-1.262,-1.2615,-1.2632,-1.2635,-1.2634,-1.2644,-1.2637,-1.2643,-1.2641,-1.2633,-1.2634,-1.2649,-1.2649,-1.2639,-1.2667,-1.2653,-1.2656,-1.2667,-1.2671,-1.2674,-1.2675,-1.2623,0,0,0,0,0,-1.2627,-1.2636,-1.2634,-1.265,-1.2651,-1.2647,-1.2652,-1.2647,-1.265,-1.2651,-1.265,-1.2653,-1.2661,-1.2666,-1.2672,-1.2691,-1.2692,-1.2701,-1.2704,-1.2707,-1.271,-1.2721,-1.2726,-1.2679,-1.2679,-1.2678,0,0,-1.2639,-1.264,-1.2646,-1.2653,-1.2655,-1.2664,-1.2649,-1.2659,-1.2666,-1.2652,-1.2666,-1.2666,-1.2668,-1.2686,-1.2693,-1.2686,-1.2723,-1.2709,-1.2712,-1.2713,-1.2723,-1.2728,-1.2732,-1.268,-1.268,-1.2679,0,0,-1.2667,-1.2668,-1.2681,-1.2683,-1.2686,-1.2684,-1.2687,-1.2687,-1.2687,-1.2701,-1.2691,-1.2699,-1.2712,-1.2714,-1.2717,-1.2746,-1.2739,-1.2748,-1.2767,-1.2778,-1.2782,-1.2785,-1.2797,-1.2801,-1.2751,-1.2751,-1.2751,0,-1.2682,-1.2696,-1.2689,-1.27,-1.2704,-1.2693,-1.2707,-1.2709,-1.2714,-1.2717,-1.2709,-1.2725,-1.2726,-1.2744,-1.2751,-1.2753,-1.2758,-1.2749,-1.2782,-1.2785,-1.2788,-1.2799,-1.2803,-1.2752,-1.2752,-1.2752,-1.2752,0,-1.2715,-1.2724,-1.2735,-1.2741,-1.2746,-1.2758,-1.2754,-1.2759,-1.2754,-1.2753,-1.2767,-1.2768,-1.2775,-1.2778,-1.2773,-1.2796,-1.2792,-1.2783,-1.2769,-1.2794,-1.2804,-1.2808,-1.2754,-1.2753,-1.2753,-1.2753,0,0,-1.2754,-1.2756,-1.276,-1.2763,-1.2766,-1.2773,-1.2785,-1.2792,-1.2798,-1.2802,-1.2812,-1.2823,-1.2815,-1.2819,-1.2814,-1.2823,-1.2848,-1.2813,-1.2813,-1.2821,-1.2875,-1.2884,-1.2889,-1.2843,-1.2843,-1.2844,-1.2876,0,-1.2782,-1.2804,-1.2798,-1.282,-1.283,-1.2819,-1.2829,-1.2832,-1.2831,-1.2839,-1.2837,-1.2846,-1.2833,-1.2836,-1.2844,-1.2843,-1.2859,-1.2841,-1.2854,-1.2854,-1.2855,-1.2894,-1.2902,-1.2932,-1.2879,-1.288,-1.2881,0,-1.2818,-1.2824,-1.2847,-1.2849,-1.2853,-1.2863,-1.287,-1.2877,-1.288,-1.2878,-1.2882,-1.2876,-1.2888,-1.2873,-1.2891,-1.2878,-1.2883,-1.2883,-1.2884,-1.2886,-1.287,-1.2899,-1.2941,-1.2947,-1.2887,-1.2886,-1.2886,0,-1.2847,-1.286,-1.2876,-1.2879,-1.2881,-1.2888,-1.289,-1.2892,-1.2897,-1.2902,-1.2906,-1.2913,-1.2917,-1.2922,-1.2918,-1.2907,-1.2936,-1.292,-1.2936,-1.2936,-1.2944,-1.2944,-1.299,-1.2944,-1.2944,-1.2944,-1.2944,0,-1.288,-1.2895,-1.2889,-1.2899,-1.2916,-1.2909,-1.2925,-1.2925,-1.2927,-1.2937,-1.2927,-1.2937,-1.2929,-1.2938,-1.2934,-1.295,-1.2951,-1.2951,-1.295,-1.2953,-1.2953,-1.2957,-1.2956,-1.2945,-1.2945,-1.2945,-1.2945,0,-1.2916,-1.2912,-1.2929,-1.293,-1.293,-1.2943,-1.2943,-1.2953,-1.295,-1.2963,-1.2966,-1.2962,-1.2972,-1.2968,-1.2978,-1.2975,-1.2996,-1.2992,-1.2996,-1.2995,-1.3012,-1.3011,-1.3063,-1.307,-1.3019,-1.3019,-1.3019,0,-1.2938,-1.295,-1.2952,-1.2958,-1.296,-1.297,-1.2975,-1.2969,-1.2975,-1.2979,-1.2988,-1.2998,-1.3005,-1.3021,-1.302,-1.3028,-1.3024,-1.3042,-1.3025,-1.3028,-1.3027,-1.3027,-1.3029,-1.3046,-1.3046,-1.3047,-1.3047,0,-1.2979,-1.2977,-1.2985,-1.2993,-1.3,-1.3006,-1.3011,-1.3016,-1.301,-1.3017,-1.3028,-1.3033,-1.3044,-1.3054,-1.3061,-1.3062,-1.3054,-1.3052,-1.3057,-1.3061,-1.3063,-1.3064,-1.3007,-1.3051,-1.3051,-1.3051,-1.305,-1.305,-1.301,-1.302,-1.3024,-1.3033,-1.3036,-1.3041,-1.3051,-1.305,-1.3059,-1.3067,-1.3063,-1.3075,-1.3078,-1.3087,-1.3089,-1.3099,-1.3092,-1.3098,-1.31,-1.3102,-1.3105,-1.306,-1.31,-1.31,-1.31,-1.31,-1.3099,0,-1.3052,-1.3053,-1.3062,-1.307,-1.3078,-1.307,-1.3075,-1.3082,-1.3093,-1.3097,-1.3104,-1.3117,-1.3126,-1.3125,-1.3134,-1.3142,-1.3139,-1.3145,-1.3145,-1.3146,-1.311,-1.3106,-1.3147,-1.3147,-1.3147,-1.3147,-1.3147,-1.3147,-1.3074,-1.3092,-1.309,-1.3109,-1.311,-1.3123,-1.3127,-1.3132,-1.3135,-1.3149,-1.3157,-1.3157,-1.3159,-1.3168,-1.3176,-1.3175,-1.318,-1.3188,-1.3186,-1.3153,-1.3148,-1.3144,-1.314,-1.3188,-1.3188,-1.3221,-1.3222,-1.3222]}]]